�������l�o���
Date,Time,MP-1(��Sv/h),MP-2(��Sv/h),MP-3(��Sv/h),MP-4(��Sv/h),MP-5(��Sv/h),MP-6(��Sv/h),MP-7(��Sv/h),MP-8(��Sv/h),����,����(m/s),���J
2018/09/05,00:00,0.795,1.175,0.834,1.475,1.071,0.470,0.816,0.770,��,10.2,��
2018/09/05,00:10,0.797,1.177,0.834,1.470,1.070,0.471,0.815,0.772,��,9.7,��
2018/09/05,00:20,0.794,1.175,0.833,1.477,1.072,0.471,0.816,0.770,��,9.5,��
2018/09/05,00:30,0.795,1.178,0.834,1.476,1.069,0.471,0.816,0.769,��,10.7,��
2018/09/05,00:40,0.796,1.176,0.834,1.477,1.073,0.472,0.815,0.769,��,11.0,��
2018/09/05,00:50,0.796,1.175,0.834,1.474,1.071,0.473,0.816,0.771,��,9.4,��
2018/09/05,01:00,0.795,1.176,0.831,1.475,1.073,0.472,0.816,0.770,��,8.8,��
2018/09/05,01:10,0.794,1.176,0.832,1.475,1.072,0.471,0.816,0.771,��,9.0,��
2018/09/05,01:20,0.796,1.178,0.836,1.473,1.073,0.471,0.817,0.770,��,8.6,��
2018/09/05,01:30,0.798,1.177,0.831,1.477,1.072,0.471,0.815,0.771,��,9.9,��
2018/09/05,01:40,0.797,1.177,0.834,1.476,1.071,0.471,0.816,0.770,��,7.6,��
2018/09/05,01:50,0.796,1.179,0.833,1.476,1.072,0.472,0.814,0.771,��,8.4,��
2018/09/05,02:00,0.795,1.176,0.834,1.476,1.072,0.471,0.814,0.770,��,8.7,��
2018/09/05,02:10,0.793,1.178,0.833,1.476,1.074,0.473,0.815,0.771,��,8.9,��
2018/09/05,02:20,0.797,1.179,0.833,1.475,1.072,0.471,0.816,0.772,��,8.3,��
2018/09/05,02:30,0.795,1.179,0.834,1.478,1.072,0.472,0.816,0.771,��,8.8,��
2018/09/05,02:40,0.796,1.178,0.835,1.476,1.072,0.471,0.816,0.773,��,8.0,��
2018/09/05,02:50,0.796,1.179,0.836,1.477,1.074,0.471,0.816,0.769,��,8.4,�L
2018/09/05,03:00,0.798,1.179,0.835,1.475,1.073,0.472,0.816,0.770,��,8.4,�L
2018/09/05,03:10,0.796,1.179,0.834,1.474,1.073,0.472,0.816,0.772,��,10.0,�L
2018/09/05,03:20,0.797,1.178,0.834,1.476,1.073,0.472,0.817,0.772,��,8.6,�L
2018/09/05,03:30,0.796,1.180,0.835,1.478,1.074,0.471,0.817,0.770,��,9.9,�L
2018/09/05,03:40,0.794,1.177,0.835,1.478,1.073,0.470,0.817,0.772,��쓌,13.5,�L
2018/09/05,03:50,0.788,1.158,0.825,1.467,1.058,0.466,0.811,0.769,-,CALM,�L
2018/09/05,04:00,0.768,1.113,0.809,1.435,1.026,0.460,0.797,0.754,�쐼,5.1,�L
2018/09/05,04:10,0.764,1.111,0.806,1.424,1.027,0.458,0.795,0.756,���k��,7.1,�L
2018/09/05,04:20,0.773,1.123,0.809,1.430,1.033,0.461,0.798,0.760,��,4.9,�L
2018/09/05,04:30,0.775,1.129,0.809,1.433,1.033,0.464,0.798,0.758,��쐼,5.1,�L
2018/09/05,04:40,0.776,1.129,0.811,1.433,1.035,0.464,0.799,0.758,�쐼,4.2,�L
2018/09/05,04:50,0.777,1.130,0.812,1.434,1.037,0.463,0.797,0.757,��쐼,3.5,�L
2018/09/05,05:00,0.778,1.130,0.812,1.432,1.036,0.465,0.797,0.757,��,6.1,�L
2018/09/05,05:10,0.779,1.132,0.815,1.433,1.033,0.465,0.797,0.758,��,5.9,�L
2018/09/05,05:20,0.776,1.131,0.813,1.432,1.032,0.466,0.797,0.758,��,8.5,�L
2018/09/05,05:30,0.782,1.135,0.815,1.434,1.036,0.466,0.798,0.757,��,8.1,�L
2018/09/05,05:40,0.778,1.137,0.813,1.438,1.040,0.464,0.798,0.760,��,7.3,�L
2018/09/05,05:50,0.780,1.133,0.813,1.435,1.035,0.467,0.798,0.757,�쓌,7.2,�L
2018/09/05,06:00,0.780,1.131,0.814,1.431,1.033,0.465,0.795,0.757,��쓌,7.1,�L
2018/09/05,06:10,0.781,1.136,0.816,1.439,1.038,0.468,0.797,0.759,��쐼,6.7,�L
2018/09/05,06:20,0.783,1.136,0.815,1.437,1.038,0.468,0.800,0.759,��쐼,7.5,�L
2018/09/05,06:30,0.783,1.139,0.815,1.442,1.039,0.466,0.800,0.758,��쐼,6.1,��
2018/09/05,06:40,0.782,1.140,0.816,1.443,1.040,0.467,0.800,0.759,��,3.8,�L
2018/09/05,06:50,0.782,1.139,0.816,1.442,1.039,0.466,0.800,0.761,��쐼,4.6,��
2018/09/05,07:00,0.783,1.138,0.815,1.441,1.041,0.467,0.800,0.758,��쐼,3.5,��
2018/09/05,07:10,0.779,1.139,0.814,1.445,1.040,0.465,0.802,0.757,��,2.3,��
2018/09/05,07:20,0.780,1.142,0.815,1.443,1.041,0.467,0.799,0.759,��쓌,4.0,��
2018/09/05,07:30,0.780,1.143,0.815,1.443,1.039,0.464,0.800,0.760,��,3.8,��
2018/09/05,07:40,0.783,1.139,0.816,1.445,1.044,0.466,0.800,0.760,��쐼,4.1,��
2018/09/05,07:50,0.781,1.143,0.817,1.447,1.042,0.466,0.801,0.760,��,3.5,��
2018/09/05,08:00,0.782,1.144,0.815,1.447,1.044,0.465,0.803,0.761,��,4.4,��
2018/09/05,08:10,0.782,1.142,0.817,1.446,1.040,0.466,0.800,0.759,��,4.4,��
2018/09/05,08:20,0.782,1.146,0.815,1.446,1.043,0.466,0.800,0.762,��,5.1,��
2018/09/05,08:30,0.783,1.146,0.814,1.448,1.044,0.468,0.801,0.760,��,5.6,��
2018/09/05,08:40,0.784,1.147,0.817,1.446,1.042,0.464,0.801,0.760,��쓌,8.0,��
2018/09/05,08:50,0.784,1.149,0.817,1.448,1.045,0.465,0.802,0.759,��,7.4,��
2018/09/05,09:00,0.785,1.152,0.814,1.448,1.046,0.468,0.802,0.761,��,6.1,��
2018/09/05,09:10,0.785,1.148,0.815,1.450,1.046,0.464,0.803,0.759,��,5.9,��
2018/09/05,09:20,0.786,1.152,0.817,1.450,1.046,0.466,0.804,0.762,��,3.9,��
2018/09/05,09:30,0.785,1.150,0.818,1.450,1.048,0.465,0.804,0.762,��쓌,3.4,��
2018/09/05,09:40,0.787,1.148,0.818,1.451,1.047,0.465,0.804,0.762,��,3.0,��
2018/09/05,09:50,0.786,1.153,0.817,1.450,1.048,0.466,0.805,0.761,��,1.9,��
2018/09/05,10:00,0.787,1.154,0.818,1.456,1.048,0.469,0.806,0.763,��쓌,1.7,��
2018/09/05,10:10,0.787,1.150,0.818,1.453,1.052,0.467,0.804,0.762,��쓌,3.0,��
2018/09/05,10:20,0.790,1.154,0.820,1.453,1.055,0.468,0.806,0.763,�쓌,3.5,��
2018/09/05,10:30,0.788,1.155,0.821,1.454,1.054,0.468,0.807,0.763,�쓌,4.6,��
2018/09/05,10:40,0.790,1.156,0.820,1.453,1.056,0.467,0.809,0.764,�쓌,4.6,��
2018/09/05,10:50,0.790,1.157,0.821,1.454,1.055,0.467,0.807,0.761,��쓌,6.6,��
2018/09/05,11:00,0.790,1.161,0.820,1.455,1.054,0.469,0.807,0.763,��쓌,7.4,��
2018/09/05,11:10,0.789,1.162,0.821,1.456,1.057,0.468,0.807,0.762,��쓌,9.3,��
2018/09/05,11:20,0.790,1.163,0.823,1.456,1.058,0.468,0.808,0.762,��쓌,7.4,��
2018/09/05,11:30,0.791,1.164,0.821,1.457,1.059,0.468,0.807,0.765,��쓌,5.8,��
2018/09/05,11:40,0.789,1.165,0.824,1.457,1.058,0.467,0.809,0.763,��쓌,4.3,��
2018/09/05,11:50,0.792,1.165,0.825,1.457,1.060,0.468,0.809,0.763,��쓌,4.6,��
2018/09/05,12:00,0.792,1.166,0.823,1.456,1.059,0.470,0.809,0.766,��쓌,7.5,��
2018/09/05,12:10,0.792,1.166,0.825,1.454,1.062,0.470,0.810,0.766,��쓌,10.2,��
2018/09/05,12:20,0.793,1.169,0.823,1.456,1.060,0.467,0.808,0.764,��쓌,9.3,��
2018/09/05,12:30,0.792,1.165,0.825,1.458,1.060,0.470,0.809,0.764,��쓌,10.9,��
2018/09/05,12:40,0.793,1.165,0.825,1.457,1.062,0.468,0.810,0.766,��쓌,10.3,��
2018/09/05,12:50,0.792,1.169,0.826,1.458,1.064,0.469,0.810,0.765,��쓌,11.9,��
2018/09/05,13:00,0.792,1.167,0.826,1.461,1.064,0.468,0.810,0.766,��쓌,11.8,��
2018/09/05,13:10,0.794,1.166,0.825,1.462,1.066,0.468,0.811,0.766,��,10.7,��
2018/09/05,13:20,0.793,1.167,0.825,1.463,1.064,0.468,0.811,0.766,��,9.9,��
2018/09/05,13:30,0.791,1.167,0.829,1.462,1.067,0.468,0.812,0.764,��,10.6,��
2018/09/05,13:40,0.793,1.168,0.825,1.462,1.065,0.469,0.810,0.765,��,8.7,��
2018/09/05,13:50,0.794,1.167,0.826,1.466,1.067,0.469,0.809,0.765,��쓌,10.2,��
2018/09/05,14:00,0.796,1.168,0.829,1.464,1.066,0.470,0.813,0.767,��쓌,8.7,��
2018/09/05,14:10,0.796,1.169,0.829,1.462,1.066,0.470,0.811,0.765,��쓌,11.3,��
2018/09/05,14:20,0.794,1.172,0.829,1.463,1.069,0.469,0.811,0.766,��쓌,10.2,��
2018/09/05,14:30,0.793,1.170,0.830,1.466,1.066,0.470,0.813,0.766,��,9.7,��
2018/09/05,14:40,0.795,1.169,0.828,1.467,1.068,0.470,0.811,0.766,��쓌,9.8,��
2018/09/05,14:50,0.793,1.171,0.829,1.465,1.068,0.471,0.811,0.767,��,8.1,��
2018/09/05,15:00,0.795,1.172,0.830,1.467,1.066,0.471,0.812,0.767,��,6.1,��
2018/09/05,15:10,0.795,1.171,0.830,1.468,1.068,0.470,0.811,0.766,��,6.0,��
2018/09/05,15:20,0.795,1.173,0.829,1.464,1.070,0.472,0.812,0.766,��,5.2,��
2018/09/05,15:30,0.793,1.176,0.830,1.464,1.067,0.471,0.812,0.766,��,6.6,��
2018/09/05,15:40,0.793,1.176,0.830,1.466,1.070,0.470,0.811,0.768,��쓌,7.3,��
2018/09/05,15:50,0.795,1.178,0.829,1.465,1.069,0.469,0.812,0.767,��,7.8,��
2018/09/05,16:00,0.796,1.176,0.830,1.466,1.071,0.468,0.812,0.768,��쓌,8.3,��
2018/09/05,16:10,0.795,1.178,0.830,1.465,1.072,0.470,0.811,0.766,��쓌,7.2,��
2018/09/05,16:20,0.795,1.176,0.829,1.469,1.070,0.470,0.812,0.766,��,6.8,��
2018/09/05,16:30,0.795,1.177,0.829,1.466,1.072,0.470,0.810,0.766,��,5.5,��
2018/09/05,16:40,0.795,1.178,0.829,1.462,1.071,0.471,0.812,0.768,��,3.7,��
2018/09/05,16:50,0.797,1.179,0.832,1.466,1.071,0.471,0.811,0.767,��,3.1,��
2018/09/05,17:00,0.795,1.177,0.831,1.467,1.071,0.471,0.812,0.763,��,3.9,��
2018/09/05,17:10,0.796,1.179,0.830,1.468,1.071,0.470,0.812,0.766,��쓌,3.5,��
2018/09/05,17:20,0.797,1.176,0.831,1.466,1.069,0.470,0.812,0.765,��,4.0,��
2018/09/05,17:30,0.797,1.176,0.829,1.467,1.070,0.471,0.811,0.767,��쐼,3.2,��
2018/09/05,17:40,0.793,1.177,0.830,1.469,1.072,0.469,0.811,0.769,��쐼,2.9,��
2018/09/05,17:50,0.795,1.179,0.830,1.468,1.071,0.471,0.810,0.767,��쐼,1.9,��
2018/09/05,18:00,0.796,1.177,0.831,1.469,1.072,0.469,0.812,0.768,�쐼,1.5,��
2018/09/05,18:10,0.794,1.179,0.833,1.467,1.073,0.470,0.812,0.768,�쐼,0.9,�L
2018/09/05,18:20,0.795,1.178,0.833,1.471,1.073,0.471,0.809,0.769,�쐼,0.9,��
2018/09/05,18:30,0.797,1.180,0.833,1.470,1.073,0.470,0.812,0.769,��,1.1,�L
2018/09/05,18:40,0.796,1.180,0.832,1.471,1.073,0.472,0.813,0.768,���k��,2.5,�L
2018/09/05,18:50,0.794,1.180,0.831,1.470,1.072,0.471,0.812,0.769,�k��,2.8,�L
2018/09/05,19:00,0.795,1.179,0.834,1.470,1.071,0.472,0.813,0.768,�k��,2.0,��
2018/09/05,19:10,0.797,1.179,0.833,1.472,1.070,0.470,0.810,0.767,�k�k��,3.7,��
2018/09/05,19:20,0.798,1.181,0.833,1.471,1.073,0.472,0.811,0.770,�k�k��,4.2,��
2018/09/05,19:30,0.795,1.178,0.831,1.473,1.074,0.471,0.812,0.770,�k�k��,4.0,��
2018/09/05,19:40,0.797,1.180,0.832,1.470,1.074,0.471,0.812,0.770,�k�k��,4.4,��
2018/09/05,19:50,0.796,1.180,0.834,1.472,1.072,0.472,0.813,0.769,�k��,3.9,�L
2018/09/05,20:00,0.799,1.180,0.831,1.470,1.072,0.471,0.812,0.769,�k��,4.4,�L
2018/09/05,20:10,0.797,1.179,0.836,1.471,1.073,0.472,0.814,0.770,�k��,3.8,��
2018/09/05,20:20,0.798,1.180,0.833,1.473,1.072,0.470,0.812,0.770,�k�k��,2.8,��
2018/09/05,20:30,0.799,1.180,0.832,1.473,1.073,0.472,0.814,0.769,�k��,3.3,��
2018/09/05,20:40,0.797,1.177,0.833,1.471,1.073,0.472,0.814,0.770,�k��,4.0,��
2018/09/05,20:50,0.797,1.182,0.831,1.473,1.074,0.471,0.813,0.768,�k��,3.9,��
2018/09/05,21:00,0.796,1.178,0.835,1.470,1.072,0.470,0.813,0.770,�k��,4.3,��
2018/09/05,21:10,0.798,1.179,0.834,1.471,1.073,0.472,0.813,0.769,�k��,5.3,��
2018/09/05,21:20,0.798,1.181,0.834,1.469,1.076,0.472,0.812,0.768,�k��,5.2,��
2018/09/05,21:30,0.800,1.179,0.833,1.475,1.073,0.471,0.813,0.769,���k��,3.9,��
2018/09/05,21:40,0.797,1.177,0.836,1.473,1.075,0.471,0.811,0.768,�k��,4.3,��
2018/09/05,21:50,0.799,1.180,0.834,1.474,1.073,0.471,0.813,0.770,�k��,3.8,��
2018/09/05,22:00,0.800,1.181,0.834,1.475,1.074,0.470,0.814,0.769,�k��,2.5,��
2018/09/05,22:10,0.797,1.180,0.834,1.476,1.073,0.470,0.812,0.770,�k��,2.0,��
2018/09/05,22:20,0.798,1.180,0.835,1.474,1.071,0.471,0.812,0.768,�k��,3.6,��
2018/09/05,22:30,0.797,1.181,0.834,1.474,1.074,0.470,0.813,0.769,�k��,3.7,��
2018/09/05,22:40,0.799,1.180,0.835,1.475,1.074,0.470,0.812,0.769,�k��,4.4,��
2018/09/05,22:50,0.797,1.179,0.835,1.473,1.073,0.469,0.813,0.768,���k��,4.8,��
2018/09/05,23:00,0.799,1.180,0.834,1.474,1.073,0.472,0.813,0.771,�k��,6.0,��
2018/09/05,23:10,0.796,1.182,0.834,1.473,1.073,0.471,0.813,0.770,�k��,5.2,��
2018/09/05,23:20,0.798,1.179,0.834,1.476,1.074,0.469,0.813,0.768,�k��,6.8,��
2018/09/05,23:30,0.797,1.178,0.835,1.475,1.074,0.470,0.813,0.770,�k��,7.4,��
2018/09/05,23:40,0.797,1.181,0.836,1.477,1.073,0.469,0.814,0.769,�k��,7.0,��
2018/09/05,23:50,0.798,1.178,0.835,1.476,1.075,0.471,0.812,0.770,�k��,6.7,��
